Location: Unspecified
(0.0000°N, 0.0000°E)
Time: 19:52:03
(UTC+00:00)

deb Delta 126 - Pass Details

Date: 23 February 2026
Orbit: 1501 x 2092 km, 101.9° (Epoch: 11 March)

Event Time Altitude Azimuth Distance (km) Brightness Sun altitude
Rises 03:26:54 0° 20° (NNE) 4,747 ? -40.9°
Reaches altitude 10° 03:29:39 10° 22° (NNE) 3,814 ? -40.2°
Maximum altitude 03:38:41 75° 107° (ESE) 1,776 ? -38.0°
Drops below altitude 10° 03:48:50 10° 191° (S) 4,259 ? -35.5°
Sets 03:52:04 0° 192° (SSW) 5,327 ? -34.7°
